User: anonymous
Location: Mason Neck State Park
(38.6428°N, 77.1981°W)
Time: 07:41:51
(UTC-04:00)
Language:

Cosmos 1400 Rocket - Orbit

View from above orbital plane
View from above orbital plane
View from above satellite
View from above satellite

Ground track
Ground track

The orbit data is extracted from the following two-line orbital elements,

1 13403U 82079B   14260.13570143  .00001876  00000-0  13324-3 0  6595
2 13403 081.1728 337.7654 0035511 344.3682 015.6440 15.03765421745639
Epoch (UTC): 17 September 2014 03:15:24
Eccentricity: 0.0035511
inclination: 81.1728°
perigee height: 530 km
apogee height: 580 km
right ascension of ascending node: 337.7654°
argument of perigee: 344.3682°
revolutions per day: 15.03765421
mean anomaly at epoch: 15.6440°
orbit number at epoch: 74563

The dashed part of the orbit path shows where the satellite is in the earth's shadow,  

DLR